Résultats de la compétition "CHAMPIONNAT REGIONAL MOYENNE DISTANCE" du 01-06-2008 organisée par le club 5907
     
  Télécharger le fichier CSV.  
     
     

 Circuit "Circuit A"

Licence Nom Prénom Temps CN
précédent
Score sur
la course
Différence
722FLICOTEAUXRaphael0:46:0056386308+670
1233CREFCOEURPhilippe0:47:0859136157+244
6999MAHIEUPierre0:50:0561595794-365
12468RADONDYDaniel0:50:1555135775+262
9629SMIRNOVKonstantin0:52:2360745539-535
4808DASILVAFernando0:53:5248405387+547
17630CATAlain0:54:2024885341+2853
13757PRINSGregory0:55:5349485193+245
9630SMIRNOVSerguei0:58:5361794928-1251
12967LEPOUTREBenjamin0:59:5675304842-2688
13090GAUDUINMaxime1:01:1059924744-1248
11077MAUCONDUITArnaud1:02:1938884656+768
2822DICKBURTMichel1:03:0145464605+59
1947POULAINJoel1:05:1254304451-979
17574LEQUINTRémi1:05:4251544417-737
13278TAELEMANSPhilippe1:05:5553224402-920
13756FLANDRINGautier1:09:5541064150+44
20178TSIRTSIKOLOUArnaud1:11:11N/A4076N/A
7215LEROYJacques1:11:2342094065-144
16954BERNACJordan1:14:5249473876-1071
16281BIZOTLaurent1:16:2137803801+21
18786SCHIMPFLaurent1:16:5535193773+254
16450SENCEStephane1:19:1731233660+537
13838BOUTINDominique1:22:2233603523+163
16397CLAIRETRichard1:23:2042753482-793
18662NEUVILLEChristian1:25:0738903409-481
12976LAMPSONSebastien1:26:5843513337-1014
12466BUCKMANFranck1:27:2639513319-632
17202LAMINETTEFrancois1:32:0934933149-344
18355BRUNOOlivier1:37:0843292987-1342
16961PARMENTFabien1:41:3631062856-250
16398GRIMBERTHerve1:42:1832552837-418
18789BAERTEtienne1:44:2626482779+131
15195THORELBruno1:52:3032082579-629
11696JOLYClaude1:55:33N/A2511N/A
8180L'HUILLIERPhilippe1:57:4435532465-1088
13030COPPEEVincent2:01:2719832389+406
17367BREDOWChristophe2:06:2319832296+313
13031DELVALGilles2:16:2519692127+158
18925TELLEDenis2:40:20N/A1810N/A
18926TELLEJocelyne2:40:22N/A1809N/A
18298DUPONTLaurentN/A22810-2281
14228BISQUERTChristopheN/A32020-3202
13088GRENOUILLATJ-LouisN/A36160-3616
7049LEROYSimonN/A69200-6920
19629CARDOTOlivierN/AN/A0N/A
16280DANELJeromeN/A54100-5410
20261RICHARDRéginaldN/AN/A0N/A

  Indice de confiance du circuit (moyenne des différences entre CN et score sur la course des 3 à 10 premiers) : 377




 Circuit "Circuit b"

Licence Nom Prénom Temps CN
précédent
Score sur
la course
Différence
11434SAUVAGEElsa0:59:54N/A4383N/A
15795DESRUMAUXCeline1:01:3546634263-400
8445FINASCeline1:02:1542994217-82
6995DECARPIGNYGwladys1:10:0340093748-261
17899DEPERSINIsabelle1:16:4128733423+550
7044LOTERIEMurielle1:17:0936953403-292
15247SANCHEZMarlene1:22:18N/A3190N/A
14246CARRIERValerie1:22:5132453169-76
9406AVEDIKIANRachel1:29:0732992946-353
7216LEROYOdile1:41:5136132577-1036
13087GRENOUILLATAnnick1:42:5328402552-288
13272CZERNIAKSidonie1:47:1127152449-266
13035PENANGUERCatherine1:52:3426612332-329
1948POULAINOdile2:24:2132021819-1383
19879REYDANTPhilippe3:06:07N/A1410N/A
19880REYDANTClarisseN/AN/A0N/A
13279PRUVOSTVeroniqueN/AN/A0N/A
2487JOLYFrancoiseN/A18710-1871
13270ROUXCatherineN/A35340-3534

  Indice de confiance du circuit (moyenne des différences entre CN et score sur la course des 3 à 10 premiers) : 385




 Circuit "Circuit C"

Licence Nom Prénom Temps CN
précédent
Score sur
la course
Différence
14372DUBOISRemi0:30:0961986382+184
9874AVEDIKIANVincent0:37:0664055186-1219
17576JOLYPhilippe0:37:4254485104-344
20040GOUVERNEURAntoine0:50:28N/A3813N/A
17345LARGILLERELucien0:54:1442373548-689
5597EJSMONTJean0:54:3644293524-905
16143WANTIERLoic0:56:0237073434-273
17573LOVATOFlorian1:01:0935103146-364
15831GOLECCharly1:01:3235523127-425
20214PECQUEURFlorian1:06:16N/A2903N/A
10540DEIANAPierre1:27:5130882190-898
17664DRAMEZFrederic1:30:1027192134-585
17201LAMINETTEM-Odile2:28:0917581299-459

  Indice de confiance du circuit (moyenne des différences entre CN et score sur la course des 3 à 10 premiers) : 422




 Circuit "Circuit D"

Licence Nom Prénom Temps CN
précédent
Score sur
la course
Différence
19411DUBOISXavier0:38:58N/A3729N/A
16145HORVATHAnne0:42:0833093449+140
18611LANQUETINCéline0:42:3232303417+187
14911LAMINETTEPauline0:45:0738993221-678
17577FACHAUXAngélique0:46:2834343128-306
15582CIRAUDOAndrea0:54:5135022650-852
7045LOTERIELaurine0:56:1036502587-1063
19240MAZYFrançois-rémi0:57:5429632510-453
18632CUVILLIERSPerrine1:00:5231742388-786
14245RICHARDNicole1:13:2627051979-726
19238CAMASMandye1:17:14N/A1882N/A
17344LARGILLEREEugenie1:17:4326901870-820
18312GERBEAUXNathanaëlle1:19:2733871829-1558
20210JOLLYPierre1:26:43N/A1676N/A
20211CREPIEUXRémy1:32:57N/A1563N/A
19881REYDANTMarie-alaïs1:36:43N/A1503N/A
15894LUDEWIG-JAMESCarol1:36:4821441501-643
20212DAMIENSMaxime1:53:29N/A1281N/A
14164EJSMONTMartine2:24:0019091009-900
12966DASILVAStephanie2:32:58N/A950N/A
20199VIEILLEMarineN/AN/A0N/A
13635JUDASSylvaineN/AN/A0N/A

  Indice de confiance du circuit (moyenne des différences entre CN et score sur la course des 3 à 10 premiers) : 511




 Circuit "Circuit E"

Licence Nom Prénom Temps CN
précédent
Score sur
la course
Différence
9172POULAINGael1:02:0419242677+753
18213LARGILLÈRENicolas1:28:0826691885-784
18661CUVILLIERSChristophe1:41:0914791643+164

  Indice de confiance du circuit (moyenne des différences entre CN et score sur la course des 3 à 10 premiers) : 545






 Retour